• In Kazakhstan
  • List of Countries
  • For 7 days
  • Water Temperature
  • Satellite Maps
  • Weather Map
  • News
  • Weather Widgets
  • user-avatar
    Login

    Hourly Weather Cheltenham

    Today, 25 March, Monday

    Time Temperature Precipitation Wind Pressure Humidity
    00:00 +3°C° 0 mm 4 mps 760 mmHg 93%
    01:00 +3°C° 0 mm 4 mps 760 mmHg 93%
    02:00 +3°C° 0 mm 4 mps 760 mmHg 94%
    03:00 +3°C° 0 mm 4 mps 760 mmHg 94%
    04:00 +1°C° 0 mm 4 mps 760 mmHg 93%
    05:00 +1°C° 0 mm 4 mps 760 mmHg 92%
    06:00 +1°C° 0 mm 3 mps 761 mmHg 92%
    07:00 +3°C° 0 mm 4 mps 761 mmHg 85%
    08:00 +3°C° 0 mm 5 mps 761 mmHg 77%
    09:00 +5°C° 0 mm 6 mps 762 mmHg 70%
    10:00 +7°C° 0 mm 5 mps 762 mmHg 66%
    11:00 +8°C° 0 mm 5 mps 762 mmHg 63%
    12:00 +10°C° 0 mm 4 mps 763 mmHg 59%
    13:00 +10°C° 0 mm 4 mps 763 mmHg 58%
    14:00 +11°C° 0 mm 3 mps 763 mmHg 58%
    15:00 +11°C° 0 mm 3 mps 763 mmHg 57%
    16:00 +10°C° 0 mm 3 mps 763 mmHg 63%
    17:00 +9°C° 0 mm 3 mps 763 mmHg 69%
    18:00 +8°C° 0 mm 2 mps 763 mmHg 74%
    19:00 +6°C° 0 mm 2 mps 763 mmHg 77%
    20:00 +5°C° 0 mm 2 mps 763 mmHg 80%
    21:00 +4°C° 0 mm 2 mps 764 mmHg 83%
    22:00 +3°C° 0 mm 2 mps 764 mmHg 84%
    23:00 +3°C° 0 mm 2 mps 764 mmHg 85%

    Tomorrow, 26 March, Tuesday

    Time Temperature Precipitation Wind Pressure Humidity
    00:00 +2°C° 0 mm 2 mps 764 mmHg 86%
    01:00 +2°C° 0 mm 2 mps 764 mmHg 88%
    02:00 +3°C° 0 mm 1 mps 764 mmHg 89%
    03:00 +2°C° 0 mm 1 mps 764 mmHg 91%
    04:00 +2°C° 0 mm 1 mps 764 mmHg 91%
    05:00 +2°C° 0 mm 1 mps 764 mmHg 92%
    06:00 +2°C° 0 mm 1 mps 764 mmHg 92%
    07:00 +4°C° 0 mm 1 mps 764 mmHg 86%
    08:00 +5°C° 0 mm 2 mps 764 mmHg 80%
    09:00 +7°C° 0 mm 2 mps 764 mmHg 74%
    10:00 +8°C° 0 mm 2 mps 764 mmHg 70%
    11:00 +10°C° 0 mm 2 mps 764 mmHg 65%
    12:00 +12°C° 0 mm 2 mps 764 mmHg 60%
    13:00 +13°C° 0 mm 2 mps 764 mmHg 60%
    14:00 +13°C° 0 mm 2 mps 763 mmHg 59%
    15:00 +14°C° 0 mm 2 mps 763 mmHg 59%
    16:00 +13°C° 0 mm 2 mps 763 mmHg 65%
    17:00 +12°C° 0 mm 2 mps 763 mmHg 72%
    18:00 +10°C° 0 mm 2 mps 763 mmHg 79%
    19:00 +8°C° 0 mm 2 mps 763 mmHg 82%
    20:00 +7°C° 0 mm 2 mps 763 mmHg 86%
    21:00 +6°C° 0 mm 2 mps 764 mmHg 89%
    22:00 +5°C° 0 mm 2 mps 764 mmHg 90%
    23:00 +5°C° 0 mm 2 mps 764 mmHg 91%

    Day after tomorrow, 27 March, Wednesday

    Time Temperature Precipitation Wind Pressure Humidity
    00:00 +5°C° 0 mm 1 mps 764 mmHg 92%
    01:00 +5°C° 0 mm 1 mps 764 mmHg 93%
    02:00 +4°C° 0 mm 1 mps 763 mmHg 93%
    03:00 +4°C° 0 mm 1 mps 763 mmHg 93%
    04:00 +4°C° 0 mm 1 mps 763 mmHg 93%
    05:00 +4°C° 0 mm 1 mps 763 mmHg 93%
    06:00 +3°C° 0 mm 1 mps 763 mmHg 94%
    07:00 +5°C° 0 mm 1 mps 764 mmHg 89%
    08:00 +6°C° 0 mm 2 mps 764 mmHg 84%
    09:00 +8°C° 0 mm 2 mps 764 mmHg 80%
    10:00 +9°C° 0 mm 2 mps 764 mmHg 74%
    11:00 +12°C° 0 mm 2 mps 764 mmHg 69%
    12:00 +12°C° 0 mm 3 mps 764 mmHg 64%
    13:00 +12°C° 0 mm 3 mps 764 mmHg 63%
    14:00 +13°C° 0 mm 3 mps 764 mmHg 63%
    15:00 +13°C° 0 mm 3 mps 764 mmHg 62%
    16:00 +13°C° 0 mm 2 mps 764 mmHg 68%
    17:00 +12°C° 0 mm 2 mps 764 mmHg 73%
    18:00 +10°C° 0 mm 2 mps 764 mmHg 79%
    19:00 +9°C° 0 mm 2 mps 764 mmHg 82%
    20:00 +8°C° 0 mm 2 mps 765 mmHg 86%
    21:00 +6°C° 0 mm 2 mps 765 mmHg 90%
    22:00 +6°C° 0 mm 2 mps 765 mmHg 91%
    23:00 +5°C° 0 mm 2 mps 765 mmHg 92%

    28 March, Thursday

    Time Temperature Precipitation Wind Pressure Humidity
    00:00 +4°C° 0 mm 2 mps 766 mmHg 93%
    01:00 +5°C° 0 mm 1 mps 766 mmHg 94%
    02:00 +4°C° 0 mm 1 mps 766 mmHg 94%
    03:00 +4°C° 0 mm 1 mps 766 mmHg 95%
    04:00 +4°C° 0 mm 1 mps 766 mmHg 95%
    05:00 +2°C° 0 mm 2 mps 766 mmHg 96%
    06:00 +2°C° 0 mm 2 mps 766 mmHg 96%
    07:00 +4°C° 0 mm 2 mps 766 mmHg 91%
    08:00 +6°C° 0 mm 2 mps 766 mmHg 87%
    09:00 +8°C° 0 mm 2 mps 767 mmHg 82%
    10:00 +9°C° 0 mm 2 mps 766 mmHg 77%
    11:00 +12°C° 0 mm 1 mps 766 mmHg 71%
    12:00 +13°C° 0 mm 1 mps 766 mmHg 65%
    13:00 +14°C° 0 mm 1 mps 766 mmHg 63%
    14:00 +13°C° 0 mm 0 mps 765 mmHg 61%
    15:00 +14°C° 0 mm 0 mps 765 mmHg 59%
    16:00 +13°C° 0 mm 0 mps 765 mmHg 64%
    17:00 +11°C° 0 mm 0 mps 765 mmHg 69%
    18:00 +10°C° 0 mm 0 mps 764 mmHg 74%
    19:00 +9°C° 0 mm 0 mps 764 mmHg 77%
    20:00 +9°C° 0 mm 1 mps 765 mmHg 80%
    21:00 +8°C° 0 mm 1 mps 765 mmHg 83%
    22:00 +7°C° 0 mm 1 mps 765 mmHg 85%
    23:00 +7°C° 0 mm 1 mps 765 mmHg 86%

    29 March, Friday

    Time Temperature Precipitation Wind Pressure Humidity
    00:00 +7°C° 0 mm 1 mps 765 mmHg 88%
    01:00 +6°C° 0 mm 1 mps 764 mmHg 89%
    02:00 +6°C° 0 mm 1 mps 764 mmHg 90%
    03:00 +6°C° 0 mm 1 mps 764 mmHg 91%
    04:00 +5°C° 0 mm 1 mps 764 mmHg 91%
    05:00 +5°C° 0 mm 1 mps 764 mmHg 92%
    06:00 +5°C° 0 mm 1 mps 763 mmHg 92%
    07:00 +7°C° 0 mm 1 mps 763 mmHg 88%
    08:00 +8°C° 0 mm 2 mps 763 mmHg 83%
    09:00 +10°C° 0 mm 2 mps 763 mmHg 79%
    10:00 +12°C° 0 mm 2 mps 763 mmHg 74%
    11:00 +13°C° 0 mm 2 mps 763 mmHg 70%
    12:00 +15°C° 0 mm 2 mps 763 mmHg 65%
    13:00 +15°C° 0 mm 2 mps 762 mmHg 64%
    14:00 +16°C° 0 mm 2 mps 762 mmHg 63%
    15:00 +16°C° 0 mm 2 mps 761 mmHg 62%
    16:00 +15°C° 0 mm 2 mps 761 mmHg 68%
    17:00 +14°C° 0 mm 2 mps 761 mmHg 73%
    18:00 +13°C° 0 mm 2 mps 761 mmHg 79%
    19:00 +10°C° 0 mm 2 mps 761 mmHg 82%
    20:00 +9°C° 0 mm 2 mps 761 mmHg 86%
    21:00 +8°C° 0 mm 2 mps 761 mmHg 89%
    22:00 +7°C° 0 mm 2 mps 761 mmHg 90%
    23:00 +8°C° 0 mm 1 mps 760 mmHg 90%

    30 March, Saturday

    Time Temperature Precipitation Wind Pressure Humidity
    00:00 +7°C° 0 mm 1 mps 760 mmHg 91%
    01:00 +7°C° 0 mm 1 mps 760 mmHg 92%
    02:00 +7°C° 0 mm 1 mps 759 mmHg 92%
    03:00 +6°C° 0 mm 1 mps 759 mmHg 93%
    04:00 +6°C° 0 mm 1 mps 759 mmHg 93%
    05:00 +6°C° 0 mm 1 mps 759 mmHg 94%
    06:00 +6°C° 0 mm 1 mps 759 mmHg 94%
    07:00 +8°C° 0 mm 1 mps 759 mmHg 90%
    08:00 +9°C° 0 mm 1 mps 759 mmHg 86%
    09:00 +10°C° 0 mm 2 mps 759 mmHg 82%
    10:00 +12°C° 0 mm 2 mps 759 mmHg 77%
    11:00 +13°C° 0 mm 2 mps 758 mmHg 73%
    12:00 +14°C° 0 mm 3 mps 758 mmHg 68%
    13:00 +14°C° 0 mm 3 mps 758 mmHg 65%
    14:00 +14°C° 0 mm 3 mps 757 mmHg 63%
    15:00 +15°C° 0 mm 2 mps 757 mmHg 61%
    16:00 +13°C° 0 mm 3 mps 757 mmHg 66%
    17:00 +12°C° 0 mm 3 mps 757 mmHg 71%
    18:00 +11°C° 0 mm 4 mps 757 mmHg 76%
    19:00 +10°C° 0 mm 4 mps 757 mmHg 77%
    20:00 +8°C° 0 mm 4 mps 758 mmHg 79%
    21:00 +6°C° 0 mm 4 mps 758 mmHg 81%
    22:00 +6°C° 0 mm 4 mps 758 mmHg 82%
    23:00 +5°C° 0 mm 5 mps 758 mmHg 84%
    Show more